FW3688 Weather Reports


time (UTC)temp
F
wind
direction
speed
knots
gust
knots
rain 1hr
in
rain 24hr
in
rain mn
in
humidity
%
barometer
mb
20260505130257 59 42 1.7 7.8 0.00 0.00 0.00 66 1010.2
20260505124757 61 46 1.7 6.1 0.00 0.00 0.00 64 1010.3
20260505124257 63 86 1.7 6.1 0.00 0.00 0.00 61 1010.3
20260505123757 65 45 1.7 6.1 0.00 0.00 0.00 58 1010.4
20260505123257 65 82 1.7 6.1 0.00 0.00 0.00 62 1010.3
20260505121757 65 71 2.6 7.0 0.00 0.00 0.00 58 1010.4
20260505121257 66 23 2.6 7.8 0.00 0.00 0.00 60 1010.4
20260505120757 65 66 1.7 6.1 0.00 0.00 0.00 62 1010.4
20260505120257 64 71 1.7 6.1 0.00 0.00 0.00 58 1010.5
20260505114757 64 35 2.6 10.4 0.00 0.00 0.00 61 1010.5
20260505114258 62 102 1.7 6.1 0.00 0.00 0.00 67 1010.5
20260505113758 59 75 1.7 5.2 0.00 0.00 0.00 69 1010.6
20260505113257 60 76 1.7 6.1 0.00 0.00 0.00 63 1010.6
20260505111757 62 32 1.7 6.1 0.00 0.00 0.00 67 1010.6
20260505111257 58 28 1.7 6.1 0.00 0.00 0.00 67 1010.7
20260505110757 60 35 1.7 6.1 0.00 0.00 0.00 63 1010.7
20260505110258 62 20 1.7 7.0 0.00 0.00 0.00 57 1010.7
20260505101258 63 71 1.7 4.3 0.00 0.00 0.00 59 1010.9
20260505094758 62 87 2.6 7.8 0.00 0.00 0.00 64 1011.0
20260505094257 60 39 1.7 6.1 0.00 0.00 0.00 70 1011.1
20260505093758 57 23 2.6 7.8 0.00 0.00 0.00 70 1011.1
20260505091758 55 14 1.7 4.3 0.00 0.00 0.00 67 1011.2
20260505090758 59 20 1.7 5.2 0.00 0.00 0.00 64 1011.2
20260505084758 56 352 0.9 4.3 0.00 0.00 0.00 67 1011.2
20260505084258 59 22 1.7 6.1 0.00 0.00 0.00 63 1011.2
20260505083758 60 99 1.7 6.1 0.00 0.00 0.00 67 1011.1
20260505081758 56 39 2.6 6.1 0.00 0.00 0.00 71 1011.2
20260505081258 57 29 1.7 5.2 0.00 0.00 0.00 72 1011.2
20260505080758 55 24 1.7 6.1 0.00 0.00 0.00 77 1011.2
20260505080258 54 31 2.6 7.8 0.00 0.00 0.00 75 1011.2
20260505074759 52 54 2.6 8.7 0.00 0.00 0.00 76 1011.3
20260505074307 53 359 1.7 7.0 0.00 0.00 0.00 77 1011.3
20260505073258 54 10 1.7 6.1 0.00 0.00 0.00 77 1011.4
20260505071759 53 24 1.7 5.2 0.00 0.00 0.00 86 1011.3
20260505070758 49 31 1.7 5.2 0.00 0.00 0.00 89 1011.3
20260505064758 48 35 3.5 6.1 0.00 0.00 0.00 92 1011.4
20260505064259 47 26 4.3 6.1 0.00 0.00 0.00 92 1011.4
20260505063258 47 36 2.6 6.1 0.00 0.00 0.00 93 1011.5
20260505061758 47 47 2.6 6.1 0.00 0.00 0.00 93 1011.5
20260505060758 47 34 0.9 2.6 0.00 0.00 0.00 93 1011.4
20260505060258 46 21 0.9 4.3 0.00 0.00 0.00 93 1011.4
20260505054759 46 27 0.9 2.6 0.00 0.00 0.00 93 1011.4
20260505053758 45 5 0.9 5.2 0.00 0.00 0.00 93 1011.3
20260505053259 45 329 1.7 5.2 0.00 0.00 0.00 93 1011.4
20260505051758 44 352 0.0 2.6 0.00 0.00 0.00 93 1011.4
20260505051258 44 340 1.7 4.3 0.00 0.00 0.00 93 1011.3
20260505050759 44 357 0.0 1.7 0.00 0.00 0.00 93 1011.3
20260505050258 44 357 0.9 4.3 0.00 0.00 0.00 93 1011.2
20260505041258 42 311 0.9 1.7 0.00 0.00 0.00 93 1011.3
20260505040758 42 316 0.9 2.6 0.00 0.00 0.00 93 1011.2
20260505034758 41 338 0.9 2.6 0.00 0.00 0.00 92 1011.3
20260505034259 41 322 0.0 0.9 0.00 0.00 0.00 92 1011.3
20260505033800 41 321 0.0 0.9 0.00 0.00 0.00 92 1011.3
20260505033258 41 321 0.0 4.3 0.00 0.00 0.00 92 1011.3
20260505031259 41 343 0.9 4.3 0.00 0.00 0.00 92 1011.3
20260505030759 41 308 0.9 4.3 0.00 0.00 0.00 92 1011.3
20260505030259 41 307 0.0 4.3 0.00 0.00 0.00 92 1011.3
20260505024259 41 306 0.9 2.6 0.00 0.00 0.00 91 1011.4
20260505023259 41 319 0.9 4.3 0.00 0.00 0.00 91 1011.4
20260505021800 41 5 0.9 2.6 0.00 0.00 0.00 91 1011.5
20260505021259 41 358 0.9 2.6 0.00 0.00 0.00 91 1011.5
20260505020300 41 1 0.9 2.6 0.00 0.00 0.00 91 1011.5
20260505014759 41 321 0.9 5.2 0.00 0.00 0.00 90 1011.5
20260505013800 41 297 0.0 1.7 0.00 0.00 0.00 91 1011.6
20260505013259 42 292 0.0 2.6 0.00 0.00 0.00 90 1011.6
20260505011800 42 291 0.0 2.6 0.00 0.00 0.00 90 1011.7
20260505011300 42 282 1.7 4.3 0.00 0.00 0.00 90 1011.6
20260505010759 42 277 0.9 2.6 0.00 0.00 0.00 90 1011.6
20260505010259 42 276 0.9 2.6 0.00 0.00 0.00 90 1011.7
20260505004759 42 277 1.7 2.6 0.00 0.00 0.00 90 1011.7
20260505004259 42 258 0.9 2.6 0.00 0.00 0.00 90 1011.7
20260505003800 42 261 0.9 2.6 0.00 0.00 0.00 90 1011.7
20260505003300 42 262 0.9 4.3 0.00 0.00 0.00 89 1011.8
20260505001759 43 253 0.9 1.7 0.00 0.00 0.00 89 1011.7
20260505001259 43 254 0.9 2.6 0.00 0.00 0.00 89 1011.8
20260505000800 43 276 0.9 2.6 0.00 0.00 0.00 89 1011.8
20260505000300 43 270 1.7 4.3 0.00 0.00 0.00 88 1011.8
20260504234800 43 260 1.7 4.3 0.00 0.00 0.00 88 1011.9
20260504234300 44 249 0.9 1.7 0.00 0.00 0.00 88 1011.9
20260504233800 44 244 1.7 4.3 0.00 0.00 0.00 89 1012.0
20260504233300 44 244 1.7 5.2 0.00 0.00 0.00 88 1012.0
20260504231759 44 241 0.0 2.6 0.00 0.00 0.00 88 1012.0
20260504231259 44 244 0.9 2.6 0.00 0.00 0.00 88 1012.0
20260504230800 44 237 0.9 1.7 0.00 0.00 0.00 88 1012.0
20260504230259 44 236 0.9 5.2 0.00 0.00 0.00 88 1012.0
20260504224800 44 258 1.7 2.6 0.00 0.00 0.00 87 1012.1
20260504224301 44 265 1.7 2.6 0.00 0.00 0.00 87 1012.1
20260504223800 44 280 2.6 6.1 0.00 0.00 0.00 87 1012.2
20260504223300 44 242 0.9 4.3 0.00 0.00 0.00 87 1012.2
20260504221800 45 241 0.9 2.6 0.00 0.00 0.00 86 1012.3
20260504220759 45 238 0.9 4.3 0.00 0.00 0.00 85 1012.3
20260504220300 45 253 0.9 2.6 0.00 0.00 0.00 85 1012.3
20260504214800 45 251 1.7 6.1 0.00 0.00 0.00 85 1012.5
20260504213800 46 248 1.7 4.3 0.00 0.00 0.00 84 1012.6
20260504213300 46 254 1.7 6.1 0.00 0.00 0.00 84 1012.6
20260504211800 46 277 1.7 4.3 0.00 0.00 0.00 84 1012.5
20260504211301 46 308 0.9 5.2 0.00 0.00 0.00 84 1012.4
20260504210800 46 260 1.7 4.3 0.00 0.00 0.00 83 1012.4
20260504210300 46 265 2.6 6.1 0.00 0.00 0.00 83 1012.3
20260504204800 47 204 0.9 1.7 0.00 0.00 0.00 82 1012.2
20260504203801 47 269 2.6 7.8 0.00 0.01 0.00 81 1012.2
20260504203301 47 259 0.9 5.2 0.00 0.01 0.00 81 1012.2
20260504201800 48 264 0.9 2.6 0.00 0.02 0.00 80 1012.2
20260504201300 48 262 0.9 6.1 0.00 0.02 0.00 79 1012.1
20260504200801 48 255 0.9 6.1 0.00 0.02 0.00 79 1012.2
20260504200300 48 201 0.9 6.1 0.00 0.02 0.00 78 1012.2
20260504194801 49 269 0.9 6.1 0.00 0.07 0.00 77 1012.0
20260504194301 49 295 0.9 5.2 0.00 0.07 0.00 76 1012.0
20260504193800 50 119 1.7 6.1 0.00 0.07 0.00 76 1011.9
20260504193300 50 200 1.7 6.1 0.00 0.07 0.00 76 1011.9
20260504191801 51 272 0.9 2.6 0.00 0.07 0.00 74 1011.9
20260504190800 51 276 2.6 6.1 0.00 0.08 0.00 74 1011.8
20260504190300 52 245 2.6 7.0 0.00 0.08 0.00 73 1011.8
20260504184800 52 247 2.6 5.2 0.00 0.09 0.00 74 1011.8
20260504184301 53 244 1.7 2.6 0.00 0.09 0.00 73 1011.6
20260504183800 53 241 2.6 5.2 0.00 0.09 0.00 73 1011.6
20260504183301 53 237 0.9 6.1 0.00 0.09 0.00 73 1011.6
20260504181801 54 240 2.6 6.1 0.00 0.12 0.00 73 1011.6
20260504181300 54 246 1.7 4.3 0.00 0.13 0.00 72 1011.6
20260504180800 54 263 0.9 4.3 0.00 0.16 0.00 72 1011.6
20260504180301 54 251 2.6 6.1 0.00 0.17 0.00 72 1011.6
20260504174801 55 230 4.3 6.1 0.00 0.28 0.00 71 1011.5
20260504174301 55 276 3.5 7.0 0.00 0.31 0.00 71 1011.5
20260504173801 55 251 2.6 4.3 0.00 0.39 0.00 72 1011.5
20260504173301 55 252 4.3 7.0 0.00 0.40 0.00 72 1011.5
20260504171800 56 237 2.6 6.1 0.00 0.57 0.00 71 1011.5
20260504171301 56 258 0.9 6.1 0.00 0.73 0.00 71 1011.5
20260504170301 57 248 2.6 6.1 0.00 0.93 0.00 71 1011.5
20260504160301 60 223 4.3 7.8 0.00 0.94 0.00 65 1011.5
20260504150801 62 241 2.6 8.7 0.00 0.94 0.00 62 1011.8